ATC134 HTDA-HTKJ

Flight info

Callsign ATC134
Flight time N/A
Altitude 32000
Route MUMTU1D MUMTU DCT ERBEP ERBEP2A
Aircraft B39M/M-SDE2E3FGHIRWXY/LB1

Departure

Time 2026-05-08 23:53
Airport Julius Nyerere International Airport (HTDA)

Arrival

Time N/A
Airport Kilimanjaro International Airport (HTKJ)
Time Latitude Longitude Altitude Speed Heading
2026-05-08 23:22 -6.86751 39.20806 180 ft 0 kts 345°
2026-05-08 23:43 -6.86758 39.20808 179 ft 2 kts 346°
2026-05-08 23:43 -6.86765 39.20809 201 ft 2 kts 345°
2026-05-08 23:45 -6.86764 39.20809 180 ft 0 kts 342°
2026-05-08 23:48 -6.86763 39.20809 179 ft 1 kts 342°
2026-05-08 23:49 -6.86749 39.20812 180 ft 3 kts 34°
2026-05-08 23:49 -6.86750 39.20842 179 ft 7 kts 105°
2026-05-08 23:49 -6.86810 39.20865 179 ft 14 kts 192°
2026-05-08 23:49 -6.86910 39.20878 178 ft 12 kts 121°
2026-05-08 23:50 -6.86902 39.20931 178 ft 7 kts 46°
2026-05-08 23:50 -6.86847 39.20979 179 ft 14 kts 41°
2026-05-08 23:50 -6.86760 39.21069 179 ft 21 kts 47°
2026-05-08 23:50 -6.86650 39.21186 181 ft 23 kts 45°
2026-05-08 23:51 -6.86552 39.21285 181 ft 22 kts 45°
2026-05-08 23:51 -6.86446 39.21390 179 ft 20 kts 45°
2026-05-08 23:51 -6.86343 39.21511 178 ft 26 kts 62°
2026-05-08 23:51 -6.86338 39.21648 174 ft 17 kts 130°
2026-05-08 23:52 -6.86448 39.21622 176 ft 23 kts 224°
2026-05-08 23:52 -6.86699 39.21369 179 ft 91 kts 225°
2026-05-08 23:52 -6.87334 39.20726 199 ft 164 kts 226°
2026-05-08 23:52 -6.88231 39.19802 654 ft 201 kts 226°
2026-05-08 23:53 -6.89216 39.18705 1321 ft 220 kts 232°
2026-05-08 23:53 -6.89735 39.17214 2219 ft 235 kts 263°
2026-05-08 23:53 -6.89447 39.15543 2957 ft 250 kts 291°
2026-05-08 23:53 -6.88513 39.14045 3806 ft 256 kts 310°
2026-05-08 23:54 -6.87647 39.13149 4155 ft 271 kts 317°
2026-05-08 23:54 -6.86119 39.11968 4788 ft 288 kts 324°
2026-05-08 23:54 -6.84382 39.10744 5205 ft 319 kts 326°
2026-05-08 23:55 -6.80333 39.08369 5751 ft 326 kts 330°
2026-05-08 23:55 -6.78309 39.07233 6111 ft 341 kts 330°
2026-05-08 23:55 -6.76153 39.06022 6490 ft 360 kts 330°
2026-05-08 23:55 -6.73884 39.04744 6825 ft 376 kts 330°
2026-05-08 23:56 -6.71591 39.03446 7163 ft 381 kts 330°
2026-05-08 23:56 -6.69271 39.02129 7489 ft 383 kts 330°
2026-05-08 23:56 -6.66908 39.00786 7831 ft 385 kts 330°
2026-05-08 23:56 -6.64539 38.99439 8170 ft 388 kts 330°
2026-05-08 23:57 -6.62070 38.98032 8787 ft 394 kts 330°
2026-05-08 23:57 -6.59673 38.96666 9501 ft 397 kts 330°
2026-05-08 23:57 -6.57264 38.95293 10107 ft 402 kts 330°
2026-05-08 23:57 -6.54817 38.93899 10678 ft 405 kts 330°
2026-05-08 23:58 -6.52354 38.92496 11261 ft 408 kts 330°
2026-05-08 23:58 -6.49868 38.91080 11815 ft 412 kts 330°
2026-05-08 23:58 -6.47367 38.89655 12362 ft 415 kts 330°
2026-05-08 23:58 -6.44844 38.88218 12880 ft 419 kts 330°
2026-05-08 23:59 -6.42229 38.86729 13389 ft 422 kts 330°
2026-05-08 23:59 -6.39665 38.85268 13966 ft 423 kts 330°
2026-05-08 23:59 -6.37112 38.83815 14614 ft 420 kts 330°
2026-05-08 23:59 -6.34579 38.82372 15306 ft 417 kts 330°
2026-05-09 00:00 -6.32069 38.80944 15984 ft 414 kts 330°
2026-05-09 00:00 -6.29566 38.79519 16641 ft 413 kts 330°
2026-05-09 00:00 -6.27074 38.78101 17301 ft 411 kts 330°
2026-05-09 00:00 -6.24591 38.76688 17996 ft 409 kts 330°
2026-05-09 00:01 -6.22129 38.75287 18662 ft 406 kts 330°
2026-05-09 00:01 -6.19678 38.73893 19285 ft 403 kts 330°
2026-05-09 00:01 -6.17240 38.72506 19870 ft 402 kts 330°
2026-05-09 00:01 -6.14812 38.71125 20458 ft 401 kts 330°
2026-05-09 00:02 -6.12386 38.69745 21071 ft 400 kts 330°
2026-05-09 00:02 -6.09970 38.68371 21708 ft 398 kts 330°
2026-05-09 00:02 -6.07567 38.67005 22336 ft 396 kts 330°
2026-05-09 00:02 -6.05175 38.65645 22990 ft 394 kts 330°
2026-05-09 00:03 -6.02792 38.64290 23631 ft 392 kts 330°
2026-05-09 00:03 -6.00417 38.62940 24029 ft 395 kts 330°
2026-05-09 00:03 -5.97979 38.61555 24093 ft 408 kts 330°
2026-05-09 00:03 -5.95471 38.60129 24180 ft 419 kts 330°
2026-05-09 00:04 -5.92906 38.58672 24255 ft 430 kts 330°
2026-05-09 00:04 -5.90273 38.57176 24323 ft 439 kts 330°
2026-05-09 00:04 -5.87584 38.55648 24389 ft 448 kts 330°
2026-05-09 00:04 -5.84815 38.54075 24445 ft 455 kts 330°
2026-05-09 00:05 -5.82033 38.52495 24497 ft 463 kts 330°
2026-05-09 00:05 -5.79214 38.50894 24546 ft 469 kts 330°
2026-05-09 00:05 -5.76358 38.49272 24587 ft 474 kts 330°
2026-05-09 00:05 -5.73471 38.47633 24640 ft 479 kts 330°
2026-05-09 00:06 -5.70560 38.45980 24736 ft 482 kts 330°
2026-05-09 00:06 -5.67639 38.44322 24895 ft 483 kts 330°
2026-05-09 00:06 -5.64714 38.42661 25130 ft 482 kts 330°
2026-05-09 00:06 -5.61798 38.41006 25395 ft 481 kts 330°
2026-05-09 00:07 -5.58847 38.39331 25649 ft 480 kts 330°
2026-05-09 00:07 -5.55907 38.37663 25880 ft 480 kts 330°
2026-05-09 00:07 -5.52996 38.36012 25984 ft 481 kts 330°
2026-05-09 00:07 -5.50073 38.34353 25984 ft 482 kts 330°
2026-05-09 00:08 -5.47168 38.32705 25989 ft 480 kts 330°
2026-05-09 00:08 -5.44260 38.31056 25993 ft 480 kts 330°
2026-05-09 00:08 -5.41356 38.29409 25994 ft 479 kts 330°
2026-05-09 00:08 -5.38452 38.27762 25997 ft 479 kts 330°
2026-05-09 00:09 -5.35547 38.26115 25995 ft 479 kts 330°
2026-05-09 00:09 -5.32647 38.24471 25998 ft 479 kts 330°
2026-05-09 00:09 -5.29750 38.22828 26000 ft 479 kts 330°
2026-05-09 00:09 -5.26836 38.21175 25999 ft 480 kts 330°
2026-05-09 00:10 -5.24915 38.20087 26000 ft 480 kts 330°
2026-05-09 00:10 -5.21037 38.17867 26005 ft 480 kts 328°
2026-05-09 00:10 -5.19198 38.16627 25996 ft 480 kts 323°
2026-05-09 00:10 -5.16670 38.14444 26009 ft 480 kts 317°
2026-05-09 00:11 -5.14221 38.12166 26005 ft 481 kts 317°
2026-05-09 00:11 -5.11776 38.09863 26004 ft 481 kts 317°
2026-05-09 00:11 -5.09336 38.07567 26005 ft 481 kts 317°
2026-05-09 00:11 -5.06892 38.05284 26006 ft 481 kts 317°
2026-05-09 00:12 -5.04431 38.03001 26007 ft 481 kts 317°
2026-05-09 00:12 -5.01964 38.00727 26009 ft 481 kts 317°
2026-05-09 00:12 -4.99499 37.98461 26016 ft 481 kts 317°
2026-05-09 00:12 -4.96990 37.96158 26009 ft 481 kts 318°
2026-05-09 00:13 -4.94525 37.93897 26013 ft 481 kts 318°
2026-05-09 00:13 -4.92022 37.91601 26011 ft 481 kts 318°
2026-05-09 00:13 -4.89515 37.89301 26008 ft 481 kts 318°
2026-05-09 00:13 -4.87042 37.87031 26009 ft 481 kts 317°
2026-05-09 00:14 -4.84469 37.84670 26012 ft 481 kts 318°
2026-05-09 00:14 -4.81966 37.82372 26009 ft 481 kts 317°
2026-05-09 00:14 -4.79499 37.80108 26014 ft 481 kts 317°
2026-05-09 00:14 -4.76993 37.77809 26008 ft 481 kts 318°
2026-05-09 00:15 -4.74529 37.75547 26008 ft 481 kts 318°
2026-05-09 00:15 -4.72060 37.73282 26011 ft 481 kts 318°
2026-05-09 00:15 -4.69589 37.71015 26013 ft 481 kts 318°
2026-05-09 00:15 -4.67098 37.68730 26011 ft 481 kts 318°
2026-05-09 00:16 -4.64630 37.66466 26013 ft 481 kts 318°
2026-05-09 00:16 -4.62154 37.64195 26012 ft 482 kts 318°
2026-05-09 00:16 -4.59677 37.61924 25985 ft 482 kts 318°
2026-05-09 00:16 -4.57192 37.59645 25553 ft 483 kts 318°
2026-05-09 00:17 -4.54732 37.57389 25151 ft 476 kts 317°
2026-05-09 00:17 -4.52302 37.55162 24746 ft 469 kts 317°
2026-05-09 00:17 -4.49907 37.52966 24355 ft 466 kts 317°
2026-05-09 00:17 -4.47525 37.50783 23970 ft 464 kts 317°
2026-05-09 00:18 -4.45151 37.48606 23583 ft 461 kts 317°
2026-05-09 00:18 -4.42805 37.46456 23130 ft 459 kts 317°
2026-05-09 00:18 -4.40424 37.44273 22663 ft 457 kts 317°
2026-05-09 00:18 -4.38117 37.42159 22221 ft 454 kts 317°
2026-05-09 00:19 -4.35762 37.40001 21772 ft 452 kts 317°
2026-05-09 00:19 -4.33478 37.37909 21338 ft 449 kts 317°
2026-05-09 00:19 -4.31176 37.35803 20910 ft 446 kts 317°
2026-05-09 00:19 -4.29025 37.33836 20513 ft 443 kts 317°
2026-05-09 00:20 -4.26591 37.31612 20058 ft 440 kts 317°
2026-05-09 00:20 -4.24338 37.29551 19646 ft 437 kts 317°
2026-05-09 00:20 -4.22100 37.27494 19239 ft 435 kts 317°
2026-05-09 00:20 -4.19881 37.25455 18839 ft 432 kts 317°
2026-05-09 00:21 -4.17642 37.23397 18437 ft 429 kts 317°
2026-05-09 00:21 -4.15446 37.21382 17999 ft 427 kts 317°
2026-05-09 00:21 -4.13262 37.19379 17541 ft 425 kts 317°
2026-05-09 00:21 -4.11087 37.17385 17080 ft 423 kts 317°
2026-05-09 00:22 -4.08920 37.15398 16646 ft 422 kts 317°
2026-05-09 00:22 -4.06785 37.13442 16225 ft 420 kts 317°
2026-05-09 00:22 -4.04631 37.11467 15798 ft 419 kts 317°
2026-05-09 00:22 -4.02483 37.09499 15367 ft 418 kts 317°
2026-05-09 00:23 -4.00343 37.07538 14947 ft 415 kts 317°
2026-05-09 00:23 -3.98219 37.05589 14542 ft 413 kts 317°
2026-05-09 00:23 -3.96106 37.03648 14133 ft 410 kts 317°
2026-05-09 00:23 -3.94016 37.01728 13708 ft 407 kts 317°
2026-05-09 00:24 -3.91934 36.99816 13260 ft 404 kts 317°
2026-05-09 00:24 -3.89869 36.97922 12816 ft 400 kts 317°
2026-05-09 00:24 -3.87831 36.96055 12359 ft 394 kts 317°
2026-05-09 00:24 -3.85824 36.94221 11931 ft 386 kts 317°
2026-05-09 00:25 -3.83853 36.92425 11498 ft 380 kts 317°
2026-05-09 00:25 -3.81910 36.90661 11061 ft 374 kts 317°
2026-05-09 00:25 -3.79992 36.88924 10655 ft 369 kts 317°
2026-05-09 00:25 -3.78115 36.87232 10233 ft 357 kts 318°
2026-05-09 00:26 -3.76812 36.86258 9936 ft 349 kts 330°
2026-05-09 00:26 -3.74708 36.85498 9502 ft 339 kts 350°
2026-05-09 00:27 -3.72416 36.85168 9058 ft 328 kts 352°
2026-05-09 00:27 -3.70188 36.84860 8617 ft 319 kts 352°
2026-05-09 00:27 -3.68020 36.84557 8181 ft 312 kts 353°
2026-05-09 00:27 -3.65891 36.84254 7749 ft 305 kts 353°
2026-05-09 00:28 -3.63819 36.83953 7319 ft 299 kts 353°
2026-05-09 00:28 -3.62064 36.83693 6957 ft 295 kts 353°
2026-05-09 00:28 -3.60057 36.83388 6543 ft 290 kts 353°
2026-05-09 00:28 -3.58071 36.83081 6155 ft 285 kts 352°
2026-05-09 00:29 -3.56169 36.82783 6062 ft 271 kts 354°
2026-05-09 00:29 -3.54368 36.82978 6044 ft 255 kts 28°
2026-05-09 00:29 -3.52954 36.83963 6071 ft 246 kts 40°
2026-05-09 00:29 -3.51592 36.85003 6053 ft 245 kts 37°
2026-05-09 00:30 -3.50193 36.85969 6044 ft 243 kts 35°
2026-05-09 00:30 -3.48795 36.86871 6010 ft 235 kts 34°
2026-05-09 00:30 -3.47431 36.87724 5900 ft 228 kts 33°
2026-05-09 00:30 -3.46094 36.88548 5795 ft 223 kts 33°
2026-05-09 00:31 -3.44802 36.89370 5721 ft 219 kts 41°
2026-05-09 00:31 -3.44021 36.90584 5582 ft 201 kts 79°
2026-05-09 00:31 -3.43804 36.91895 5485 ft 183 kts 81°
2026-05-09 00:31 -3.43617 36.93125 5379 ft 177 kts 85°
2026-05-09 00:32 -3.43519 36.94354 5161 ft 177 kts 89°
2026-05-09 00:32 -3.43459 36.95577 4930 ft 175 kts 89°
2026-05-09 00:32 -3.43406 36.96790 4707 ft 175 kts 90°
2026-05-09 00:32 -3.43354 36.97983 4480 ft 166 kts 89°
2026-05-09 00:33 -3.43305 36.99116 4261 ft 161 kts 89°
2026-05-09 00:33 -3.43273 36.99857 4135 ft 162 kts 89°
2026-05-09 00:33 -3.43207 37.01360 3881 ft 158 kts 89°
2026-05-09 00:33 -3.43159 37.02449 3640 ft 156 kts 88°
2026-05-09 00:34 -3.43112 37.03537 3486 ft 157 kts 89°
2026-05-09 00:34 -3.43094 37.04265 3314 ft 159 kts 89°
2026-05-09 00:34 -3.43035 37.05355 3125 ft 156 kts 88°
2026-05-09 00:34 -3.42989 37.06434 3016 ft 151 kts 88°
2026-05-09 00:35 -3.42951 37.07505 3136 ft 159 kts 89°
2026-05-09 00:35 -3.42928 37.08710 3332 ft 186 kts 89°
2026-05-09 00:35 -3.42922 37.10103 3640 ft 207 kts 90°
2026-05-09 00:35 -3.42923 37.11510 4133 ft 200 kts 92°
2026-05-09 00:36 -3.42906 37.12887 4483 ft 197 kts 90°
2026-05-09 00:36 -3.42835 37.14259 4819 ft 198 kts 88°
2026-05-09 00:36 -3.42757 37.15638 5135 ft 198 kts 95°
2026-05-09 00:36 -3.43246 37.16890 5456 ft 196 kts 133°
2026-05-09 00:37 -3.44410 37.17578 5801 ft 199 kts 169°
2026-05-09 00:37 -3.45779 37.17423 6128 ft 204 kts 203°
2026-05-09 00:37 -3.46894 37.16518 6084 ft 209 kts 229°
2026-05-09 00:37 -3.47789 37.15376 6048 ft 208 kts 232°
2026-05-09 00:38 -3.48443 37.14029 6069 ft 223 kts 251°
2026-05-09 00:38 -3.48906 37.12525 6070 ft 229 kts 251°
2026-05-09 00:38 -3.49351 37.11000 6048 ft 228 kts 258°
2026-05-09 00:38 -3.49422 37.09426 6043 ft 229 kts 282°
2026-05-09 00:39 -3.48980 37.07924 6216 ft 222 kts 283°
2026-05-09 00:39 -3.48512 37.06391 6146 ft 233 kts 278°
2026-05-09 00:39 -3.48579 37.04818 6090 ft 221 kts 259°
2026-05-09 00:39 -3.48846 37.03339 6046 ft 211 kts 258°
2026-05-09 00:40 -3.49117 37.01907 6054 ft 210 kts 258°
2026-05-09 00:40 -3.49362 37.00457 6051 ft 213 kts 263°
2026-05-09 00:40 -3.49491 36.98975 6069 ft 214 kts 264°
2026-05-09 00:41 -3.49721 36.95997 6057 ft 215 kts 264°
2026-05-09 00:41 -3.49834 36.94506 6051 ft 215 kts 264°
2026-05-09 00:41 -3.49946 36.93016 6061 ft 215 kts 264°
2026-05-09 00:41 -3.50056 36.91522 5966 ft 215 kts 264°
2026-05-09 00:42 -3.50161 36.90070 5840 ft 202 kts 264°
2026-05-09 00:42 -3.49914 36.88733 5658 ft 198 kts 304°
2026-05-09 00:42 -3.48798 36.87992 5567 ft 198 kts 353°
2026-05-09 00:42 -3.47450 36.88122 5504 ft 195 kts 17°
2026-05-09 00:43 -3.46254 36.88614 5425 ft 179 kts 29°
2026-05-09 00:43 -3.45175 36.89193 5314 ft 172 kts 36°
2026-05-09 00:43 -3.44336 36.90033 5228 ft 175 kts 57°
2026-05-09 00:43 -3.43946 36.91142 5134 ft 163 kts 84°
2026-05-09 00:44 -3.43775 36.92268 5122 ft 163 kts 82°
2026-05-09 00:44 -3.43610 36.93375 5069 ft 159 kts 86°
2026-05-09 00:44 -3.43520 36.94475 5070 ft 159 kts 88°
2026-05-09 00:44 -3.43460 36.95594 4928 ft 160 kts 89°
2026-05-09 00:45 -3.43410 36.96695 4725 ft 158 kts 90°
2026-05-09 00:45 -3.43394 36.97069 4659 ft 159 kts 90°